Home   Weather   Wolverhampton   Past weeks

Flag for United Kingdom Past Weather in Wolverhampton, England, United Kingdom — Yesterday and Last 2 Weeks

Now
43 °F

Passing clouds.


Feels Like: 43 °F
Forecast: N/A
Wind: No wind

Location: Birmingham / Airport

Current Time: Dec 2, 2016 at 7:56:58 pm

Latest Report: Dec 2, 2016 at 7:20 pm


Visibility: N/A

Pressure: 30.33 "Hg

Humidity: 93%

Dew Point: 41 °F

Location of WolverhamptonLocation

Past Weather in Wolverhampton — Graph

°F

Wolverhampton Temperature Yesterday

Maximum temperature yesterday: 46 °F (at 1:20 pm)
Minimum temperature yesterday: 28 °F (at 2:20 am)
Average temperature yesterday: 38 °F

High & Low Weather Summary for the Past Weeks

 TemperatureHumidityPressure
High48 °F (Nov 21, 5:20 pm)100% (Nov 18, 7:20 pm)30.57 "Hg (Nov 18, 7:20 pm)
Low25 °F (Nov 29, 6:20 am)53% (Nov 28, 1:50 pm)28.91 "Hg (Nov 20, 4:50 am)
Average41 °F92%29.98 "Hg
* Reported Nov 17 6:20 pm — Dec 2 6:20 pm, Wolverhampton, Weather by CustomWeather, © 2016

Note: Actual official high and low records may vary slightly from our data, if they occured in-between our weather recording intervals... More about our weather records

Advertising

Wolverhampton Weather History for the Previous 24 Hours

Scroll right to see more
 ConditionsComfort  
Time TempWeatherWind HumidityBarometerVisibility
6:20 pm
Fri, Dec 2
43 °FPassing clouds.3 mph93%30.30 "HgN/A
5:50 pm43 °FPassing clouds.3 mph93%30.30 "HgN/A
5:20 pm45 °FPassing clouds.3 mph87%30.30 "HgN/A
4:50 pm45 °FPassing clouds.3 mph87%30.30 "HgN/A
4:20 pm45 °FPassing clouds.3 mph87%30.30 "Hg6 mi
3:50 pm45 °FPartly sunny.3 mph87%30.30 "HgN/A
3:20 pm45 °FOvercast.3 mph87%30.30 "HgN/A
2:50 pm45 °FOvercast.3 mph87%30.30 "HgN/A
2:20 pm45 °FOvercast.3 mph87%30.30 "HgN/A
1:50 pm45 °FOvercast.3 mph87%30.33 "HgN/A
1:20 pm46 °FOvercast.3 mph82%30.33 "HgN/A
12:50 pm45 °FOvercast.3 mph87%30.33 "HgN/A
12:20 pm45 °FOvercast.2 mph93%30.33 "HgN/A
11:50 am45 °FOvercast.2 mph93%30.33 "HgN/A
11:20 am45 °FOvercast.3 mph93%30.33 "HgN/A
10:50 am45 °FOvercast.3 mph93%30.33 "HgN/A
10:20 am45 °FOvercast.2 mph93%30.33 "HgN/A
9:50 am45 °FOvercast.2 mph93%30.33 "Hg4 mi
9:20 am43 °FOvercast.2 mph100%30.33 "Hg4 mi
8:50 am43 °FDrizzle. Overcast.3 mph100%30.33 "Hg4 mi
8:20 am43 °FFog.2 mph100%30.33 "Hg2 mi
7:50 am43 °FFog.5 mph100%30.33 "Hg3 mi
7:20 am43 °FOvercast.3 mph100%30.33 "Hg5 mi
6:50 am43 °FOvercast.3 mph100%30.33 "Hg5 mi
6:20 am45 °FOvercast.2 mph93%30.33 "Hg5 mi
5:50 am45 °FOvercast.5 mph93%30.33 "Hg5 mi
5:20 am43 °FPassing clouds.5 mph100%30.33 "HgN/A
4:50 am43 °FPassing clouds.3 mph100%30.33 "HgN/A
4:20 am45 °FPassing clouds.3 mph93%30.33 "HgN/A
3:50 am45 °FPassing clouds.3 mph93%30.33 "HgN/A
3:20 am45 °FPassing clouds.5 mph93%30.33 "HgN/A
2:50 am45 °FOvercast.6 mph93%30.33 "HgN/A
2:20 am45 °FOvercast.7 mph93%30.33 "HgN/A
1:50 am45 °FOvercast.5 mph93%30.33 "HgN/A
1:20 am45 °FOvercast.5 mph93%30.33 "HgN/A
12:50 am45 °FOvercast.5 mph93%30.36 "HgN/A
12:20 am45 °FOvercast.9 mph93%30.36 "HgN/A
11:50 pm
Thu, Dec 1
45 °FPassing clouds.8 mph93%30.36 "HgN/A
11:20 pm45 °FPassing clouds.7 mph93%30.36 "HgN/A
10:50 pm46 °FPassing clouds.8 mph82%30.36 "HgN/A
10:20 pm45 °FPassing clouds.8 mph87%30.36 "HgN/A
9:50 pm45 °FPassing clouds.3 mph87%30.36 "HgN/A
9:20 pm45 °FPassing clouds.5 mph87%30.36 "HgN/A
8:50 pm46 °FPassing clouds.7 mph82%30.36 "HgN/A
8:20 pm46 °FPassing clouds.6 mph82%30.36 "HgN/A
7:50 pm45 °FPassing clouds.3 mph87%30.36 "HgN/A
7:20 pm45 °FPassing clouds.3 mph87%30.36 "HgN/A
Weather by CustomWeather, © 2016

See weather overviewHow to use our weather pages